星链-1165 (STARLINK-1165 )

导读 | 豆包AI

STARLINK-1165是美国太空探索技术公司(SpaceX)星链卫星互联网星座的一员,于2020年1月29日发射入轨,属于星链星座早期部署的卫星。它承担着为全球提供低延迟、高速率宽带互联网服务的任务,依托低轨运行架构,助力星链完成全球网络覆盖布局。

基本信息
目录编号:
45059
目录名称:
STARLINK-1165
国际标识:
2020-006R
轨道中心:
EARTH
卫星名称:
星链-1165
卫星全名:
星链-1165 (STARLINK-1165 )
卫星状态:
已陨落 最后检测时间 2024-08-09
发射日期:
2020-01-29 UTC
国别 :
美国 (US)
星等 :
--
轨道信息
数据来源 国际轨道数据
星历时间: 2024-08-09T07:52:26+0800
轨道信息已过期582天
半长轴: 6585.701km
偏心率: 0.001063
轨道倾角: 53.034°
近地点辐角 343.178°
升交点赤经 291.494°
平近点角 144.980°
近地点: 200.565km
远地点: 214.567km
周期: 88.647分钟
每日圈数: 16.244256
详细信息
固有亮度:
5
最大亮度:
2.5
卫星平台:
Starlink V1.0
覆盖范围:
全球
运营商:
太空探索技术公司
运营商所在国:
美国
制造商(研发单位):
太空探索技术公司
制造商所在国:
美国
使用方式:
暂无
卫星简介
星链(Starlink)计划是由太空探索技术公司(SpaceX)提出的一个巨型低轨卫星互联网星座项目,计划在2019年至2024年间在太空搭建由约1.2万颗卫星组成的“星链”网络,其中1584颗将部署在地球上空550千米处的近地轨道,并从2020年开始工作。该卫星仍在工作。